Regional Weather Roundup
Issued by NWS

Home | Current Version | Previous Version | Graphics & Text | Print | Product List | Glossary On
Versions: 1 2 3 4 5 6 7 8 9 10 11 12 13 14 15 16 17 18 19 20 21 22 23 24 25 26 27 28 29 30 31 32 33 34 35 36 37 38 39 40 41 42 43 44 45 46 47 48 49 50
356
ASUS43 KMPX 261710
RWRMN
WEATHER ROUNDUP FOR MINNESOTA
NATIONAL WEATHER SERVICE TWIN CITIES/CHANHASSEN MN
1100 AM CST SUN FEB 26 2017


NOTE: "FAIR" INDICATES FEW OR NO CLOUDS BELOW 12,000 FEET WITH NO
SIGNIFICANT WEATHER AND/OR OBSTRUCTIONS TO VISIBILITY. N/A MEANS
CURRENT SKY AND/OR WEATHER CONDITIONS ARE NOT AVAILABLE.

MNZ060>063-068>070-261800-
   Twin Cities Metro

CITY           SKY/WX    TMP DP  RH WIND       PRES   REMARKS
TWIN CITIES    MOSUNNY   34  22  61 W14       29.78S WCI  25
ST PAUL        MOSUNNY   34  23  64 W13       29.79S WCI  25
CRYSTAL        PTSUNNY   34  20  56 W16G24    29.77R WCI  24
BLAINE         PTSUNNY   34  25  69 MISG      29.76R
LAKEVILLE      MOSUNNY   30  25  80 W13       29.79R WCI  20
EDEN PRAIRIE   PTSUNNY   34  22  61 W14       29.77S WCI  25
SOUTH ST PAUL  SUNNY     34  23  62 W10G18    29.78S WCI  26
LAKE ELMO      FAIR      34  25  69 SW10      29.78R WCI  26
$$
MNZ001>005-007-008-013>017-022>024-027-028-261800-
   Northwest Minnesota

CITY           SKY/WX    TMP DP  RH WIND       PRES   REMARKS
BEMIDJI        SUNNY     13   4  66 NW6       29.78R WCI   4
HALLOCK        SUNNY     10   3  72 W6        29.83S WCI   1
ROSEAU         SUNNY     12   5  73 W6        29.80R WCI   3
WARROAD        SUNNY     12   3  67 SW13      29.78S WCI  -3
THIEF RVR FALL   N/A    N/A N/A N/A MISG        N/A
CROOKSTON      SUNNY     10   7  85 W5        29.86R WCI   2
FOSSTON        SUNNY     18   3  53 NW3       29.81R
DETROIT LAKES  FLURRIES  16  10  79 N12       29.81R WCI   3
MOORHEAD       SUNNY     12   5  73 NW8       29.87R WCI   1
PARK RAPIDS    SUNNY     17   5  59 NW12      29.77R WCI   4
MAHNOMEN       FLURRIES  12   7  79 N6        29.82R WCI   3
$$
MNZ006-009>011-018-025>026-261800-
   North Central Minnesota

CITY           SKY/WX    TMP DP  RH WIND       PRES   REMARKS
BAUDETTE       SUNNY     12   0  58 NW13      29.77R WCI  -3
FLAG ISLAND    PTSUNNY   12   1  62 W10G16    29.76R WCI  -1
INTL FALLS     SUNNY     13  -1  54 NW12      29.75R WCI  -1
WASKISH        SUNNY     12   3  67 W6        29.79R WCI   3
BIG FORK       SUNNY     16   3  57 W5        29.75R WCI   9
LONGVILLE      SUNNY     18   7  62 NW6       29.77R WCI   9
GRAND RAPIDS   FLURRIES  17   6  62 NW14      29.76R WCI   3
CRANE LAKE     PTSUNNY   10   3  72 NW9       29.75R WCI  -2
ORR            SUNNY     12   1  62 NW12      29.70R WCI  -2
COOK           MOSUNNY   14   3  62 W8        29.72R WCI   3
WALKER         FAIR      14   4  65 NW7       29.77R WCI   4
$$
MNZ012-019>021-037-261800-
   Northeast Minnesota

CITY           SKY/WX    TMP DP  RH WIND       PRES   REMARKS
DULUTH         LGT SNOW  20  14  77 NW18G24   29.67R VSB 1   WCI   5
ELY            LGT SNOW  14   7  73 NW9       29.68R WCI   2
HIBBING        SUNNY     13   4  67 NW17      29.72R WCI  -4
EVELETH        MIX PCPN  17   7  63 NW14G21   29.71R WCI   3
DULUTH HARBOR  CLOUDY    25  19  80 NW15      29.72R WCI  12
TWO HARBORS    MIX PCPN  25  16  68 NW9G16    29.65R WCI  15
SILVER BAY     CLOUDY    25  16  68 W7        29.64R WCI  17
GRAND MARAIS     N/A     25  13  60 NW12G20   29.64S WCI  14
G MARAIS ARPRT LGT SNOW  18   7  62 W9        29.58R WCI   6
$$
MNZ029>031-032-039>041-046>048-054>057-064-261800-
   West Central Minnesota

CITY           SKY/WX    TMP DP  RH WIND       PRES   REMARKS
FERGUS FALLS   SUNNY     12  12 100 NW9       29.89R WCI   0
WHEATON        SUNNY     18  10  73 NW8       29.89S WCI   7
MORRIS         SUNNY     21  12  68 NW17      29.83R WCI   7
ALEXANDRIA     SUNNY     22  10  60 NW14G21   29.80R WCI   9
ELBOW LAKE     FAIR      14  10  86 NW12      29.85R WCI   0
WADENA         SUNNY     18   9  68 NW10      29.78R WCI   6
GLENWOOD       SUNNY     25  14  63 NW15      29.80R WCI  12
APPLETON       MOSUNNY   25  16  68 NW13      29.85R WCI  13
BENSON         SUNNY     28  12  50 N15G21    29.85R WCI  17
ORTONVILLE     PTSUNNY   21  14  73 N12G17    29.85S WCI   9
MADISON        MOSUNNY   27  19  74 N14       29.86R WCI  15
WILLMAR        FAIR      28  21  74 NW20      29.82R WCI  15
$$
MNZ033>034-036-042>043-049>051-058-059-261800-
   Central Minnesota

CITY           SKY/WX    TMP DP  RH WIND       PRES   REMARKS
ST CLOUD       PTSUNNY   33  20  58 NW20      29.75R WCI  21
SAUK CENTRE    FAIR      25  14  63 NW16      29.79R WCI  12
PAYNESVILLE    PTSUNNY   29  20  67 W16       29.79R WCI  18
AITKIN           N/A     23  10  58 W7        29.74R WCI  15
PINE RIVER     SUNNY     18   9  68 NW10      29.80S WCI   6
BRAINERD       MOSUNNY   20  12  71 N8        29.77R WCI  10
STAPLES        SUNNY     19  10  68 NW7       29.78R WCI  10
LONG PRAIRIE   FAIR      25  14  63 W14       29.78R WCI  13
LITTLE FALLS   PTSUNNY   28  14  54 NW12G18   29.77R WCI  18
LITCHFIELD     MOSUNNY   34  21  60 W15G24    29.78R WCI  24
BUFFALO        PTSUNNY   34  22  61 SW12G18   29.78R WCI  26
MAPLE LAKE     PTSUNNY   36  25  64 W13G22    29.77R
HUTCHINSON     PTSUNNY   32  25  75 W18       29.80R WCI  21
$$
MNZ037-044-045-052-053-261800-
   East Central Minnesota

CITY           SKY/WX    TMP DP  RH WIND       PRES   REMARKS
PRINCETON      CLOUDY    34  21  60 W14G22    29.75R WCI  24
MORA           PTSUNNY   32  21  64 NW13G20   29.74R WCI  22
CAMBRIDGE      CLOUDY    34  21  60 W13G21    29.73R WCI  25
RUSH CITY      CLOUDY    32  23  69 W8        29.74R WCI  25
MOOSE LAKE     CLOUDY    23  14  68 NW14G22   29.72R WCI  11
HINCKLEY       CLOUDY    32  19  59 W12G22    29.72R WCI  23
CLOQUET        LGT SNOW  19  12  73 NW12G20   29.70R WCI   7
MCGREGOR       MOSUNNY   21  12  68 NW12G18   29.75R WCI   9
$$
MNZ071>073-080-081-089-090-097-098-261800-
   Southwest Minnesota

CITY           SKY/WX    TMP DP  RH WIND       PRES   REMARKS
MONTEVIDEO     SUNNY     28  19  69 N14       29.86R WCI  17
GRANITE FALLS  MOSUNNY   32  22  66 W17G23    29.85R WCI  21
CANBY          MOSUNNY   31  20  66 N12       29.85R WCI  21
MARSHALL       PTSUNNY   32  23  69 N15       29.83R WCI  22
REDWOOD FALLS  PTSUNNY   34  21  59 W18G24    29.82R WCI  23
OLIVIA         MOSUNNY   32  23  69 NW16G24   29.81R WCI  21
PIPESTONE      SUNNY     34  21  60 NW10      29.81R WCI  26
WINDOM         SUNNY     36  27  69 W10       29.82R
WORTHINGTON    SUNNY     29  23  78 W13       29.83R WCI  19
JACKSON        SUNNY     30  23  74 W13       29.83R WCI  20
TRACY          MOSUNNY   34  26  73 NW9       29.83R WCI  26
SLAYTON        SUNNY     32  25  75 W10       29.82R WCI  24
$$
MNZ065>067-074>077-082>085-091>093-261800-
   South Central Minnesota

CITY           SKY/WX    TMP DP  RH WIND       PRES   REMARKS
MANKATO          N/A     31  24  75 W14       29.82R WCI  21
NEW ULM        PTSUNNY   34  23  64 W14       29.83R WCI  24
ST JAMES       MOSUNNY   34  27  75 W13G18    29.84R WCI  25
FAIRMONT       SUNNY     28  21  75 W15       29.84R WCI  16
GLENCOE        PTSUNNY   34  28  78 W16G22    29.79R WCI  24
FARIBAULT      PTSUNNY   27  19  74 S7        29.81S WCI  19
OWATONNA       PTSUNNY   27  19  74 SW10      29.81R WCI  17
WASECA         CLOUDY    28  21  74 SW8       29.83R WCI  20
ALBERT LEA     MOSUNNY   28  19  69 SW12      29.82S WCI  18
$$
MNZ078>079-086>088-094>096-261800-
   Southeast Minnesota

CITY           SKY/WX    TMP DP  RH WIND       PRES   REMARKS
ROCHESTER      PTSUNNY   25  20  81 SW17      29.81R WCI  12
RED WING       CLOUDY    28  18  64 W6        29.80R WCI  22
STANTON        CLOUDY    28  20  72 SW10      29.80R WCI  19
WINONA         MOSUNNY   32  21  64 W6        29.84R WCI  26
AUSTIN         MOSUNNY   27  19  74 S9        29.83R WCI  17
PRESTON        SUNNY     30  20  67 SW13      29.82R WCI  20
$$
ABBREVIATIONS USED IN REMARKS
   TC - TEMPERATURES IN CELSIUS
  WCI - WIND CHILL INDEX
   HX - HEAT INDEX
  VSB - VISIBILITY
$$




USA.gov is the U.S. government's official web portal to all federal, state and local government web resources and services.